Pasco, WA

2:19 PM PST on January 19, 2017 (GMT -0800)
Tri-Cities

Weather History for KPSC - December, 2013

Change the Weather History Date:

Sunday, December 29, 2013

  Actual Average Record
Temperature  
Mean Temperature 29 °F 32 °F  
Max Temperature 31 °F 39 °F 60 °F (1998)
Min Temperature 26 °F 26 °F 0 °F (1990)
Degree Days  
Heating Degree Days 36 33  
Month to date heating degree days 1083 924  
Since 1 July heating degree days 2433 2153  
Cooling Degree Days 0 0  
Month to date cooling degree days 0 0  
Year to date cooling degree days 995 710  
Moisture  
Dew Point 27 °F    
Average Humidity 96    
Maximum Humidity 100    
Minimum Humidity 92    
Precipitation  
Precipitation 0.00 in 0.04 in 0.59 in (2002)
Month to date precipitation 0.14 1.12  
Year to date precipitation 4.89 8.74  
Snow  
Snow 0.00 in - - ()
Snow Depth 0.00 in    
Sea Level Pressure  
Sea Level Pressure 30.41 in    
Wind  
Wind Speed 2 mph (North)    
Max Wind Speed 10 mph    
Max Gust Speed 12 mph    
Visibility 2 miles    
Events Fog    
T = Trace of Precipitation, MM = Missing Value Source: NWS Daily Summary

Daily Weather History Graph

Daily Weather History Graph

Search for Another Location

Airport or City:

Trip Planner

Search our weather history database for the weather conditions in past years. The results will help you decide how hot, cold, wet, or windy it might be!

Date:

Astronomy

Dec. 29, 2013 Rise Set
Actual Time 7:39 AM PST 4:18 PM PST
Civil Twilight 7:04 AM PST 4:53 PM PST
Nautical Twilight 6:26 AM PST 5:31 PM PST
Astronomical Twilight 5:49 AM PST 6:07 PM PST
Moon 4:23 AM PST (12/29) 2:04 PM PST (12/29)
Length of Visible Light 9h 48m
Length of Day
8h 39m
Waning Crescent, 10% of the Moon is Illuminated
Dec 29
Waning Crescent
Jan 1
New
Jan 7
First Quarter
Jan 15
Full
Jan 23
Last Quarter

Hourly Weather History & Observations

Time (PST) Temp. Windchill Dew Point Humidity Pressure Visibility Wind Dir Wind Speed Gust Speed Precip Events Conditions
12:38 AM 26.1 °F - 26.1 °F 100% 30.53 in 0.8 mi Calm Calm - N/A   Mist
12:48 AM 26.6 °F 22.6 °F 26.6 °F 100% 30.53 in 1.0 mi SSW 3.5 mph - N/A   Mist
12:53 AM 26.1 °F - 25.0 °F 96% 30.55 in 0.8 mi Calm Calm - N/A   Mist
1:15 AM 26.1 °F 21.9 °F 25.0 °F 96% 30.51 in 1.0 mi South 3.5 mph - N/A   Mist
1:53 AM 26.1 °F - 26.1 °F 100% 30.53 in 1.0 mi Calm Calm - N/A   Mist
2:53 AM 26.1 °F 21.9 °F 24.1 °F 92% 30.52 in 1.0 mi East 3.5 mph - N/A   Mist
3:12 AM 26.1 °F 21.9 °F 24.1 °F 92% 30.49 in 2.0 mi NE 3.5 mph - N/A   Overcast
3:21 AM 26.1 °F 21.9 °F 25.0 °F 96% 30.48 in 1.2 mi NE 3.5 mph - N/A   Overcast
3:40 AM 26.1 °F - 25.0 °F 96% 30.47 in 0.8 mi Calm Calm - N/A   Mist
3:53 AM 26.1 °F 21.9 °F 25.0 °F 96% 30.49 in 0.5 mi NE 3.5 mph - N/A Fog Light Freezing Fog
4:53 AM 26.1 °F - 26.1 °F 100% 30.48 in 0.5 mi Calm Calm - N/A Fog Light Freezing Fog
5:53 AM 26.1 °F - 25.0 °F 96% 30.46 in 0.2 mi Calm Calm - N/A Fog Light Freezing Fog
6:53 AM 26.1 °F - 25.0 °F 96% 30.44 in 0.2 mi Calm Calm - N/A Fog Light Freezing Fog
7:53 AM 27.0 °F - 25.0 °F 92% 30.44 in 0.2 mi Calm Calm - N/A Fog Light Freezing Fog
8:53 AM 27.0 °F - 26.1 °F 96% 30.43 in 0.2 mi Calm Calm - N/A Fog Light Freezing Fog
9:21 AM 27.0 °F 23.0 °F 26.1 °F 96% 30.40 in 0.5 mi ENE 3.5 mph - N/A Fog Light Freezing Fog
9:53 AM 28.0 °F 24.2 °F 27.0 °F 96% 30.43 in 0.2 mi East 3.5 mph - N/A Fog Light Freezing Fog
10:00 AM 28.0 °F 24.2 °F 27.0 °F 96% 30.40 in 0.5 mi ESE 3.5 mph - N/A Fog Light Freezing Fog
10:06 AM 28.0 °F 24.2 °F 27.0 °F 96% 30.40 in 1.0 mi ESE 3.5 mph - N/A   Mist
10:26 AM 28.0 °F - 27.0 °F 96% 30.41 in 2.0 mi Calm Calm - N/A   Overcast
10:53 AM 28.9 °F - 28.0 °F 96% 30.41 in 2.5 mi Calm Calm - N/A   Overcast
11:53 AM 30.0 °F - 28.0 °F 92% 30.38 in 2.5 mi Calm Calm - N/A   Overcast
12:53 PM 30.9 °F 27.5 °F 28.9 °F 92% 30.36 in 2.5 mi North 3.5 mph - N/A   Mostly Cloudy
1:53 PM 30.0 °F 26.5 °F 28.9 °F 96% 30.35 in 2.5 mi WNW 3.5 mph - N/A   Overcast
2:53 PM 30.0 °F 24.1 °F 28.9 °F 96% 30.34 in 2.5 mi NNW 5.8 mph - N/A   Overcast
3:53 PM 28.9 °F 25.2 °F 28.0 °F 96% 30.33 in 3.0 mi North 3.5 mph - N/A   Overcast
4:53 PM 28.9 °F - 28.0 °F 96% 30.32 in 3.0 mi Calm Calm - N/A   Overcast
5:53 PM 28.9 °F 23.9 °F 28.0 °F 96% 30.32 in 3.0 mi West 4.6 mph - N/A   Overcast
6:13 PM 28.9 °F 22.8 °F 28.0 °F 96% 30.31 in 3.0 mi West 5.8 mph - N/A   Overcast
6:53 PM 28.0 °F 24.2 °F 27.0 °F 96% 30.32 in 3.0 mi WNW 3.5 mph - N/A   Overcast
7:53 PM 28.0 °F 21.7 °F 27.0 °F 96% 30.32 in 4.0 mi WNW 5.8 mph - N/A   Overcast
8:53 PM 28.9 °F 21.1 °F 28.0 °F 96% 30.35 in 4.0 mi North 8.1 mph - N/A   Overcast
9:53 PM 28.9 °F 23.9 °F 27.0 °F 92% 30.35 in 5.0 mi NNW 4.6 mph - N/A   Overcast
10:53 PM 28.9 °F 22.8 °F 27.0 °F 92% 30.36 in 10.0 mi NNW 5.8 mph - N/A   Overcast
11:05 PM 28.9 °F 22.8 °F 27.0 °F 92% 30.34 in 10.0 mi North 5.8 mph - N/A   Overcast
11:53 PM 28.0 °F 22.8 °F 26.1 °F 92% 30.37 in 10.0 mi North 4.6 mph - N/A   Overcast